SCP
0 0 0 0 0 0 0 0 0 0 0 0 0 0 0 0 0 0 0 0 0 0 0 0 0 0 0 0 0 0 0 0 0 0 0 0 0 0 0 0 -0 -0 -0
0 0 0 1 1 0 0 0 0 0 0 0 0 0 0 0 0 0 0 0 0 0 0 0 0 0 0 0 0 0 0 0 0 0 0 0 0 0 0 0 0 -0 -0
0 0 1 1 1 0 0 0 1 1 1 0 0 0 0 0 0 0 0 0 0 0 0 0 0 0 0 0 0 0 0 0 1 0 0 0 0 0 0 0 0 0 -0
0 0 0 1 1 1 1 1 1 1 1 0 0 0 0 0 0 0 0 0 0 0 0 0 0 0 0 0 0 0 0 0 0 0 0 0 0 0 0 0 0 0 0
0 0 0 1 1 1 1 1 1 1 1 1 0 0 0 0 0 0 0 0 0 0 0 0 0 0 0 0 0 0 0 0 1 0 0 0 0 1 0 0 0 0 0
0 0 2 2 2 2 1 1 1 1 1 1 0 0 0 0 0 0 0 0 0 0 0 0 0 0 0 0 0 0 0 0 0 0 0 0 1 1 1 0 0 0 0
0 1 2 2 2 1 0 1 1 1 0 0 0 0 0 0 0 0 0 0 0 0 0 0 0 0 0 0 0 0 0 0 0 0 0 0 0 1 1 1 1 0 0
0 0 0 1 1 1 1 1 1 0 0 0 0 0 0 0 0 0 0 0 0 0 0 0 0 0 0 0 0 0 0 0 0 0 0 0 0 1 1 1 0 0 0
0 0 0 0 0 1 1 1 0 0 0 0 0 0 0 0 0 0 0 0 0 0 0 0 0 0 0 0 0 0 0 0 0 0 0 0 0 1 1 0 0 0 0
0 0 0 0 0 0 0 0 0 0 0 0 0 0 0 0 0 0 0 0 0 0 0 0 0 0 0 0 0 0 0 0 0 0 1 0 0 0 0 0 0 0 0
0 0 0 0 0 0 0 0 0 0 0 0 0 0 0 0 0 0 0 0 0 0 0 0 0 0 0 0 0 0 0 0 0 1 1 0 0 0 0 0 0 0 0
0 0 0 0 0 0 0 0 0 0 0 0 0 0 0 0 0 0 0 0 0 0 0 0 0 0 0 0 0 0 0 0 1 1 1 0 0 0 0 0 0 0 0
0 0 0 0 0 0 0 0 0 0 0 0 0 0 0 0 0 0 0 0 0 0 0 0 0 0 0 0 0 0 0 0 1 1 1 0 0 0 0 0 0 0 0
0 0 0 0 0 0 0 0 0 0 0 0 0 0 0 0 0 0 0 0 0 0 0 0 0 0 0 0 0 0 0 0 1 1 0 0 -0 -0 -0 0 0 0 0
0 0 0 0 0 0 0 0 0 0 0 0 0 0 0 0 0 0 0 0 0 0 0 0 0 0 0 0 0 0 0 0 1 1 1 0 0 0 0 0 0 0 0
0 0 0 0 0 0 0 0 0 0 0 0 0 0 0 0 0 0 0 0 0 0 0 0 0 0 0 0 0 0 0 0 1 1 1 0 0 0 0 0 0 0 0
0 0 0 0 0 0 0 0 0 0 0 0 0 0 0 0 0 0 0 0 0 0 -0 0 0 0 0 0 0 0 0 0 1 1 1 0 0 0 0 0 -0 0 0
0 0 0 0 0 0 0 0 0 0 0 0 0 0 0 0 0 0 0 0 0 0 -0 0 0 0 0 0 0 0 0 0 0 0 1 0 0 0 0 0 0 0 0
0 0 0 0 0 0 0 0 0 0 0 0 0 0 0 0 -0 -0 0 0 0 0 -0 0 0 0 0 0 0 0 0 0 0 1 0 0 0 0 0 0 0 0 0
0 0 0 0 0 0 0 0 0 0 0 0 0 0 0 0 -0 -0 -0 0 -0 0 -0 0 0 0 0 0 0 0 0 0 0 0 0 0 0 0 0 0 0 0 0
0 0 0 0 0 0 0 0 0 0 0 0 0 0 0 0 0 -0 0 0 0 -0 -0 0 0 0 0 0 0 0 0 0 0 0 1 0 0 0 0 0 0 0 0
0 0 0 0 0 0 0 0 0 0 0 0 0 0 0 0 0 -0 -0 -0 0 -0 0 0 0 0 0 0 0 0 0 0 0 0 0 0 0 0 0 0 0 0 0
0 0 0 0 0 0 0 0 0 0 0 0 0 0 0 0 0 0 0 0 0 -0 -0 0 0 0 0 0 0 0 0 0 0 0 0 0 0 0 0 0 0 0 0
0 0 0 0 0 0 0 0 0 0 0 0 0 0 0 0 -0 0 0 0 -0 0 -0 0 0 0 0 0 0 0 0 0 0 0 0 0 0 0 0 0 0 0 0
0 0 0 0 0 0 0 0 0 0 0 0 0 0 0 0 -0 -0 0 0 -0 0 0 0 0 0 0 0 0 0 0 0 0 0 0 0 0 0 0 0 0 0 0
0 0 0 0 0 0 0 0 0 0 0 0 0 0 0 0 -0 -0 -0 0 -0 0 0 0 0 0 0 0 0 0 0 0 0 0 0 0 0 0 0 0 0 0 0
Wind_Speed_500mb
17 9 9 6 7 6 9 13 14 16 18 17 14 13 11 14 20 24 28 27 23 21 19 20 21 20 23 28 37 38 40 42 37 36 35 30 28 23 22 27 22 22 22
14 13 13 10 14 9 14 19 20 20 21 21 20 21 19 20 22 27 30 30 29 24 22 21 20 18 19 24 33 39 39 41 39 42 43 33 26 21 31 26 28 25 23
11 15 18 16 18 17 24 25 22 23 25 25 26 27 28 29 27 27 29 31 31 28 24 23 23 21 19 22 28 36 38 37 43 43 45 34 29 25 25 28 35 35 34
12 17 23 21 20 24 31 32 28 26 27 26 29 32 36 37 34 29 31 29 29 31 30 24 24 26 23 24 26 32 36 34 36 47 49 42 33 30 30 38 36 36 35
13 20 26 19 18 24 31 34 33 30 29 34 35 37 39 39 38 35 36 40 38 38 33 30 25 27 29 27 25 26 33 32 32 42 50 44 42 35 38 38 37 36 41
11 11 20 15 14 24 34 36 36 33 36 41 40 40 42 42 39 39 44 44 44 42 41 36 31 30 30 31 29 28 30 32 30 35 43 48 48 45 39 40 42 45 46
19 14 17 21 31 34 35 35 32 34 39 43 44 45 46 45 47 46 47 47 47 44 42 38 39 33 35 36 32 32 32 31 27 31 41 48 47 49 47 46 44 42 48
28 27 27 31 29 33 29 30 34 30 31 34 40 46 48 48 48 48 50 53 54 53 49 43 42 35 39 40 33 34 34 32 28 30 37 44 50 49 47 49 48 48 57
22 21 19 26 24 20 18 23 26 32 37 39 37 38 42 46 49 49 51 53 53 49 47 43 45 39 45 44 37 33 36 34 31 28 34 36 37 43 52 48 52 61 67
16 18 18 12 13 21 25 30 37 34 35 38 37 36 34 35 36 35 32 29 34 38 41 41 46 43 43 47 39 31 36 36 32 28 33 32 35 43 45 48 54 57 72
21 20 22 18 21 27 35 38 27 28 33 37 43 45 50 43 35 28 23 21 25 27 33 42 42 44 41 46 38 34 34 37 32 30 34 29 33 38 47 44 53 62 61
32 35 23 21 33 41 40 25 23 25 35 43 45 42 35 30 25 23 21 25 24 27 31 37 38 43 42 44 38 36 34 34 35 35 34 33 32 38 42 57 56 61 67
37 29 30 32 39 43 39 26 25 24 30 37 45 44 28 28 24 17 13 19 31 28 28 33 39 41 42 36 37 37 30 34 39 37 34 36 33 40 41 47 56 66 67
24 22 25 34 37 37 31 29 25 23 35 40 47 34 29 27 30 25 24 21 27 29 27 32 42 42 34 29 34 29 21 37 38 34 35 36 38 45 41 50 61 59 71
28 23 28 33 33 31 31 26 25 26 29 36 30 27 28 29 31 31 26 21 26 32 30 31 42 40 28 31 41 30 27 38 32 35 39 37 39 46 55 51 53 52 65
26 23 29 28 26 27 29 27 31 31 33 32 31 27 28 31 31 25 24 23 24 32 36 31 43 37 35 40 44 39 37 33 31 31 41 39 39 46 52 50 37 54 57
35 30 25 18 17 20 26 30 32 37 38 36 29 28 31 30 32 25 21 22 19 28 42 34 34 38 35 39 40 40 41 29 38 36 45 42 42 47 53 48 45 65 63
36 24 22 21 18 20 25 23 27 30 32 31 27 26 28 29 32 28 22 21 17 25 46 36 39 41 38 42 42 44 41 31 38 42 46 48 48 48 47 49 55 56 67
30 21 23 20 15 19 19 17 24 26 27 28 27 22 22 24 26 28 20 15 13 22 48 41 44 44 39 39 40 43 26 36 38 40 43 52 46 50 47 49 61 71 60
23 19 18 14 14 18 15 22 25 24 19 22 30 24 20 18 23 26 17 12 9 18 36 43 43 46 34 31 45 34 41 34 35 39 42 48 50 52 49 55 57 59 69
21 17 12 8 17 16 17 24 19 21 24 26 28 28 20 14 18 22 15 12 15 20 36 39 41 41 33 43 39 35 34 29 33 41 46 45 51 54 42 48 52 58 75
21 14 10 11 12 13 12 15 19 28 27 27 23 26 22 7 12 22 12 14 21 27 33 40 38 37 36 42 43 44 24 30 34 40 45 54 58 58 50 56 62 57 74
22 15 13 11 14 6 11 17 22 23 23 23 15 22 18 6 7 13 14 20 25 27 35 40 39 43 46 43 36 32 26 21 46 45 50 53 63 60 57 65 65 71 78
22 17 16 17 5 4 13 18 24 35 33 20 8 19 14 6 8 19 24 23 19 26 32 41 40 44 44 45 44 34 31 55 29 36 51 53 54 57 64 80 72 78 72
21 20 21 14 9 1 14 20 26 31 22 14 7 12 16 3 7 24 27 24 24 27 34 35 41 37 36 41 37 32 37 50 44 59 54 51 40 44 53 61 76 59 70
26 26 18 14 8 7 8 13 19 24 24 20 14 11 11 2 8 25 31 28 29 26 33 32 40 39 41 38 36 39 36 53 51 64 63 58 56 52 57 63 71 68 68
Wind_Direction_500mb
178 201 209 264 284 302 329 324 310 288 293 298 289 280 271 277 289 300 307 306 300 298 288 274 243 230 239 233 226 221 226 226 223 220 213 216 220 217 209 190 188 186 177
173 199 246 266 304 311 326 321 305 289 285 285 286 289 281 282 280 284 295 300 302 295 282 268 257 240 246 241 232 228 229 224 226 219 214 203 204 204 207 194 168 177 166
179 218 246 272 288 305 319 316 299 285 283 288 291 289 287 292 289 276 281 285 290 292 287 272 252 235 241 250 238 234 232 225 225 216 213 207 208 198 190 187 180 170 173
214 262 259 279 289 296 306 305 298 284 278 278 282 282 287 289 289 279 275 274 281 282 282 276 258 233 234 243 243 235 234 230 227 215 215 210 205 204 193 189 188 176 173
263 282 268 263 269 291 297 298 296 287 278 278 281 285 286 286 287 281 273 278 274 274 275 275 261 246 230 235 245 238 239 230 229 214 219 210 208 198 196 191 190 175 170
223 249 232 247 271 291 297 298 295 280 271 270 275 280 280 280 280 274 273 271 272 270 269 268 271 243 239 236 232 235 236 230 226 223 215 217 213 207 201 197 185 181 187
213 214 245 269 288 301 303 299 296 289 280 275 275 275 275 274 274 271 268 268 268 266 265 262 259 244 233 230 235 228 230 226 225 220 214 215 210 209 205 200 192 182 161
209 227 255 269 287 300 300 305 309 305 297 293 289 282 277 275 274 275 273 270 266 263 261 254 250 243 231 234 234 225 226 220 219 216 216 217 217 209 202 200 196 184 171
225 264 272 262 296 297 285 298 299 301 302 304 299 288 278 277 277 276 273 269 264 257 253 246 243 235 227 230 225 225 221 220 212 216 210 209 208 209 208 211 204 190 181
270 242 246 281 258 258 276 293 297 304 303 308 305 308 301 298 290 279 267 267 261 252 244 236 235 227 225 225 222 224 220 217 209 212 208 200 208 211 220 213 203 201 186
231 204 202 207 247 267 290 304 294 294 303 299 297 310 314 304 299 286 263 258 258 251 241 231 230 221 223 224 222 222 219 213 207 206 205 200 201 206 215 215 199 194 193
180 176 210 248 278 291 304 292 281 300 293 290 295 304 297 307 307 298 264 253 264 266 244 231 224 214 223 223 215 216 217 209 202 204 205 202 209 200 205 207 198 193 184
192 214 246 268 291 308 319 309 276 260 284 279 288 296 295 315 315 290 271 253 253 252 244 229 213 208 216 220 207 209 216 200 198 205 194 196 196 197 201 203 198 190 187
211 224 255 290 301 309 319 319 306 269 268 280 289 285 292 303 316 299 291 281 266 255 244 231 211 209 214 213 194 191 214 195 195 203 196 191 193 192 190 182 182 181 169
215 238 268 292 304 322 322 331 329 313 299 292 289 279 279 286 309 301 285 285 264 243 232 216 210 209 206 196 183 188 200 187 188 198 192 192 193 188 188 183 184 178 165
231 249 277 290 317 320 328 322 323 323 319 311 290 273 272 274 288 290 287 291 272 235 223 210 210 208 190 181 182 192 191 192 200 195 193 188 190 184 186 171 183 184 170
235 260 278 304 309 307 311 310 315 317 321 315 299 279 276 264 271 283 286 287 276 230 215 205 204 197 198 185 194 194 193 196 202 193 199 192 181 183 183 195 190 186 175
223 252 266 286 275 281 300 310 323 319 328 331 319 290 277 267 268 274 275 282 280 225 208 203 196 195 198 195 192 197 196 201 195 188 200 197 185 188 192 190 185 181 169
210 232 249 281 290 290 314 321 321 325 331 338 339 314 285 259 255 257 262 276 271 227 206 205 197 196 199 199 208 191 199 182 188 186 196 200 190 187 188 190 182 175 181
214 232 247 274 290 300 312 329 316 329 323 347 356 344 295 260 259 242 251 261 240 189 189 190 195 192 193 193 177 178 173 186 184 189 195 200 193 189 188 188 189 181 164
212 224 254 274 294 313 317 330 331 332 314 326 348 343 347 271 245 230 229 224 190 186 179 183 182 193 186 181 173 158 163 183 176 180 195 189 185 184 183 191 195 172 157
207 209 221 261 273 308 337 342 341 330 315 311 324 342 341 311 242 214 219 204 179 173 179 180 184 184 179 179 176 166 133 150 171 177 182 184 178 176 180 169 164 158 156
198 195 219 218 267 355 341 336 344 349 336 328 310 336 332 284 169 190 176 175 167 171 185 190 188 189 181 180 185 171 150 164 150 172 181 181 172 175 171 169 167 158 154
188 195 188 228 228 308 355 350 0 349 337 346 340 344 355 348 157 161 164 160 156 173 181 186 179 184 185 175 177 183 187 164 145 136 160 169 172 176 178 174 170 160 165
180 194 193 224 201 299 353 5 8 2 14 19 5 340 360 13 169 165 173 157 158 152 165 176 180 177 183 196 196 182 156 148 160 138 127 141 148 166 171 173 163 165 164
181 192 194 208 178 138 322 350 11 29 41 41 17 1 0 308 155 173 178 173 176 154 155 170 176 175 179 187 189 183 178 163 169 155 148 154 158 166 164 164 166 167 165
Wind_Speed_850mb
17 9 9 6 7 6 9 13 14 16 18 17 14 13 11 14 20 24 28 27 23 21 19 20 21 20 23 28 37 38 40 42 37 36 35 30 28 23 22 27 22 22 22
14 13 13 10 14 9 14 19 20 20 21 21 20 21 19 20 22 27 30 30 29 24 22 21 20 18 19 24 33 39 39 41 39 42 43 33 26 21 31 26 28 25 23
11 15 18 16 18 17 24 25 22 23 25 25 26 27 28 29 27 27 29 31 31 28 24 23 23 21 19 22 28 36 38 37 43 43 45 34 29 25 25 28 35 35 34
12 17 23 21 20 24 31 32 28 26 27 26 29 32 36 37 34 29 31 29 29 31 30 24 24 26 23 24 26 32 36 34 36 47 49 42 33 30 30 38 36 36 35
13 20 26 19 18 24 31 34 33 30 29 34 35 37 39 39 38 35 36 40 38 38 33 30 25 27 29 27 25 26 33 32 32 42 50 44 42 35 38 38 37 36 41
11 11 20 15 14 24 34 36 36 33 36 41 40 40 42 42 39 39 44 44 44 42 41 36 31 30 30 31 29 28 30 32 30 35 43 48 48 45 39 40 42 45 46
19 14 17 21 31 34 35 35 32 34 39 43 44 45 46 45 47 46 47 47 47 44 42 38 39 33 35 36 32 32 32 31 27 31 41 48 47 49 47 46 44 42 48
28 27 27 31 29 33 29 30 34 30 31 34 40 46 48 48 48 48 50 53 54 53 49 43 42 35 39 40 33 34 34 32 28 30 37 44 50 49 47 49 48 48 57
22 21 19 26 24 20 18 23 26 32 37 39 37 38 42 46 49 49 51 53 53 49 47 43 45 39 45 44 37 33 36 34 31 28 34 36 37 43 52 48 52 61 67
16 18 18 12 13 21 25 30 37 34 35 38 37 36 34 35 36 35 32 29 34 38 41 41 46 43 43 47 39 31 36 36 32 28 33 32 35 43 45 48 54 57 72
21 20 22 18 21 27 35 38 27 28 33 37 43 45 50 43 35 28 23 21 25 27 33 42 42 44 41 46 38 34 34 37 32 30 34 29 33 38 47 44 53 62 61
32 35 23 21 33 41 40 25 23 25 35 43 45 42 35 30 25 23 21 25 24 27 31 37 38 43 42 44 38 36 34 34 35 35 34 33 32 38 42 57 56 61 67
37 29 30 32 39 43 39 26 25 24 30 37 45 44 28 28 24 17 13 19 31 28 28 33 39 41 42 36 37 37 30 34 39 37 34 36 33 40 41 47 56 66 67
24 22 25 34 37 37 31 29 25 23 35 40 47 34 29 27 30 25 24 21 27 29 27 32 42 42 34 29 34 29 21 37 38 34 35 36 38 45 41 50 61 59 71
28 23 28 33 33 31 31 26 25 26 29 36 30 27 28 29 31 31 26 21 26 32 30 31 42 40 28 31 41 30 27 38 32 35 39 37 39 46 55 51 53 52 65
26 23 29 28 26 27 29 27 31 31 33 32 31 27 28 31 31 25 24 23 24 32 36 31 43 37 35 40 44 39 37 33 31 31 41 39 39 46 52 50 37 54 57
35 30 25 18 17 20 26 30 32 37 38 36 29 28 31 30 32 25 21 22 19 28 42 34 34 38 35 39 40 40 41 29 38 36 45 42 42 47 53 48 45 65 63
36 24 22 21 18 20 25 23 27 30 32 31 27 26 28 29 32 28 22 21 17 25 46 36 39 41 38 42 42 44 41 31 38 42 46 48 48 48 47 49 55 56 67
30 21 23 20 15 19 19 17 24 26 27 28 27 22 22 24 26 28 20 15 13 22 48 41 44 44 39 39 40 43 26 36 38 40 43 52 46 50 47 49 61 71 60
23 19 18 14 14 18 15 22 25 24 19 22 30 24 20 18 23 26 17 12 9 18 36 43 43 46 34 31 45 34 41 34 35 39 42 48 50 52 49 55 57 59 69
21 17 12 8 17 16 17 24 19 21 24 26 28 28 20 14 18 22 15 12 15 20 36 39 41 41 33 43 39 35 34 29 33 41 46 45 51 54 42 48 52 58 75
21 14 10 11 12 13 12 15 19 28 27 27 23 26 22 7 12 22 12 14 21 27 33 40 38 37 36 42 43 44 24 30 34 40 45 54 58 58 50 56 62 57 74
22 15 13 11 14 6 11 17 22 23 23 23 15 22 18 6 7 13 14 20 25 27 35 40 39 43 46 43 36 32 26 21 46 45 50 53 63 60 57 65 65 71 78
22 17 16 17 5 4 13 18 24 35 33 20 8 19 14 6 8 19 24 23 19 26 32 41 40 44 44 45 44 34 31 55 29 36 51 53 54 57 64 80 72 78 72
21 20 21 14 9 1 14 20 26 31 22 14 7 12 16 3 7 24 27 24 24 27 34 35 41 37 36 41 37 32 37 50 44 59 54 51 40 44 53 61 76 59 70
26 26 18 14 8 7 8 13 19 24 24 20 14 11 11 2 8 25 31 28 29 26 33 32 40 39 41 38 36 39 36 53 51 64 63 58 56 52 57 63 71 68 68
Wind_Direction_850mb
178 201 209 264 284 302 329 324 310 288 293 298 289 280 271 277 289 300 307 306 300 298 288 274 243 230 239 233 226 221 226 226 223 220 213 216 220 217 209 190 188 186 177
173 199 246 266 304 311 326 321 305 289 285 285 286 289 281 282 280 284 295 300 302 295 282 268 257 240 246 241 232 228 229 224 226 219 214 203 204 204 207 194 168 177 166
179 218 246 272 288 305 319 316 299 285 283 288 291 289 287 292 289 276 281 285 290 292 287 272 252 235 241 250 238 234 232 225 225 216 213 207 208 198 190 187 180 170 173
214 262 259 279 289 296 306 305 298 284 278 278 282 282 287 289 289 279 275 274 281 282 282 276 258 233 234 243 243 235 234 230 227 215 215 210 205 204 193 189 188 176 173
263 282 268 263 269 291 297 298 296 287 278 278 281 285 286 286 287 281 273 278 274 274 275 275 261 246 230 235 245 238 239 230 229 214 219 210 208 198 196 191 190 175 170
223 249 232 247 271 291 297 298 295 280 271 270 275 280 280 280 280 274 273 271 272 270 269 268 271 243 239 236 232 235 236 230 226 223 215 217 213 207 201 197 185 181 187
213 214 245 269 288 301 303 299 296 289 280 275 275 275 275 274 274 271 268 268 268 266 265 262 259 244 233 230 235 228 230 226 225 220 214 215 210 209 205 200 192 182 161
209 227 255 269 287 300 300 305 309 305 297 293 289 282 277 275 274 275 273 270 266 263 261 254 250 243 231 234 234 225 226 220 219 216 216 217 217 209 202 200 196 184 171
225 264 272 262 296 297 285 298 299 301 302 304 299 288 278 277 277 276 273 269 264 257 253 246 243 235 227 230 225 225 221 220 212 216 210 209 208 209 208 211 204 190 181
270 242 246 281 258 258 276 293 297 304 303 308 305 308 301 298 290 279 267 267 261 252 244 236 235 227 225 225 222 224 220 217 209 212 208 200 208 211 220 213 203 201 186
231 204 202 207 247 267 290 304 294 294 303 299 297 310 314 304 299 286 263 258 258 251 241 231 230 221 223 224 222 222 219 213 207 206 205 200 201 206 215 215 199 194 193
180 176 210 248 278 291 304 292 281 300 293 290 295 304 297 307 307 298 264 253 264 266 244 231 224 214 223 223 215 216 217 209 202 204 205 202 209 200 205 207 198 193 184
192 214 246 268 291 308 319 309 276 260 284 279 288 296 295 315 315 290 271 253 253 252 244 229 213 208 216 220 207 209 216 200 198 205 194 196 196 197 201 203 198 190 187
211 224 255 290 301 309 319 319 306 269 268 280 289 285 292 303 316 299 291 281 266 255 244 231 211 209 214 213 194 191 214 195 195 203 196 191 193 192 190 182 182 181 169
215 238 268 292 304 322 322 331 329 313 299 292 289 279 279 286 309 301 285 285 264 243 232 216 210 209 206 196 183 188 200 187 188 198 192 192 193 188 188 183 184 178 165
231 249 277 290 317 320 328 322 323 323 319 311 290 273 272 274 288 290 287 291 272 235 223 210 210 208 190 181 182 192 191 192 200 195 193 188 190 184 186 171 183 184 170
235 260 278 304 309 307 311 310 315 317 321 315 299 279 276 264 271 283 286 287 276 230 215 205 204 197 198 185 194 194 193 196 202 193 199 192 181 183 183 195 190 186 175
223 252 266 286 275 281 300 310 323 319 328 331 319 290 277 267 268 274 275 282 280 225 208 203 196 195 198 195 192 197 196 201 195 188 200 197 185 188 192 190 185 181 169
210 232 249 281 290 290 314 321 321 325 331 338 339 314 285 259 255 257 262 276 271 227 206 205 197 196 199 199 208 191 199 182 188 186 196 200 190 187 188 190 182 175 181
214 232 247 274 290 300 312 329 316 329 323 347 356 344 295 260 259 242 251 261 240 189 189 190 195 192 193 193 177 178 173 186 184 189 195 200 193 189 188 188 189 181 164
212 224 254 274 294 313 317 330 331 332 314 326 348 343 347 271 245 230 229 224 190 186 179 183 182 193 186 181 173 158 163 183 176 180 195 189 185 184 183 191 195 172 157
207 209 221 261 273 308 337 342 341 330 315 311 324 342 341 311 242 214 219 204 179 173 179 180 184 184 179 179 176 166 133 150 171 177 182 184 178 176 180 169 164 158 156
198 195 219 218 267 355 341 336 344 349 336 328 310 336 332 284 169 190 176 175 167 171 185 190 188 189 181 180 185 171 150 164 150 172 181 181 172 175 171 169 167 158 154
188 195 188 228 228 308 355 350 0 349 337 346 340 344 355 348 157 161 164 160 156 173 181 186 179 184 185 175 177 183 187 164 145 136 160 169 172 176 178 174 170 160 165
180 194 193 224 201 299 353 5 8 2 14 19 5 340 360 13 169 165 173 157 158 152 165 176 180 177 183 196 196 182 156 148 160 138 127 141 148 166 171 173 163 165 164
181 192 194 208 178 138 322 350 11 29 41 41 17 1 0 308 155 173 178 173 176 154 155 170 176 175 179 187 189 183 178 163 169 155 148 154 158 166 164 164 166 167 165